Regional Weather Roundup
Issued by NWS

Home | Current Version | Previous Version | Graphics & Text | Print | Product List | Glossary On
Versions: 1 2 3 4 5 6 7 8 9 10 11 12 13 14 15 16 17 18 19 20 21 22 23 24 25 26 27 28 29 30 31 32 33 34 35 36 37 38 39 40 41 42 43 44 45 46 47 48 49 50
000
ASUS44 KMEG 301210
RWRTN
TENNESSEE HOURLY STATE WEATHER ROUNDUP
NATIONAL WEATHER SERVICE MEMPHIS TN
700 AM CDT SUN APR 30 2017

TNZ002-004-019-021-049-052-054-088>092-301300-
WEST TENNESSEE

CITY           SKY/WX    TMP DP  RH WIND       PRES   REMARKS
MEMPHIS INTL   LGT RAIN  73  70  90 SE13      29.77S
NWS MEMPHIS      N/A     74 N/A N/A MISG        N/A
JACKSON        CLOUDY    69  67  93 E6        29.84S
DYERSBURG      TSTM      66  63  88 E13G21    29.80F FOG
SOMERVILLE     CLOUDY    73  68  83 S9G16     29.80F
UNION CITY     PTSUNNY   64  64 100 E8        29.82S FOG
BOLIVAR        CLOUDY    73  66  78 SE9       29.83R
HUNTINGDON     CLOUDY    66  64  94 E9        29.86S
LEXINGTON      CLOUDY    72  66  83 CALM      29.89R
SAVANNAH       CLOUDY    73  66  78 S6        29.89R
$$

TNZ008-025-027-028-033-062-065-066-301300-
NORTH MIDDLE TENNESSEE

CITY           SKY/WX    TMP DP  RH WIND       PRES   REMARKS
NASHVILLE      CLOUDY    73  66  78 S3        29.96R
PORTLAND       CLOUDY    72  66  83 S7        29.94F
CLARKSVILLE    CLOUDY    68  61  78 W6        29.93R
SMYRNA         CLOUDY    71  67  87 CALM      29.96R
COOKEVILLE     SUNNY     72  64  78 S12G21    29.97R
GALLATIN       CLOUDY    72  66  83 CALM      29.98R
CROSSVILLE     CLOUDY    69  62  78 SW6       30.06R
$$

TNZ061-075-076-078-094-096-097-301300-
SOUTH MIDDLE TENNESSEE

CITY           SKY/WX    TMP DP  RH WIND       PRES   REMARKS
FAYETTEVILLE   SUNNY     72  64  78 S12       29.96R
TULLAHOMA      MOSUNNY   72  61  68 S9        29.99R
WINCHESTER     SUNNY     72  63  73 SE12      29.99R
MCMINNVILLE    MOSUNNY   73  64  73 S7        29.98R
COLUMBIA       PTSUNNY  N/A N/A N/A VRB3      29.94R
SHELBYVILLE    PTSUNNY   73  66  78 S5        29.98R
$$

TNZ017-018-042-046-047-301300-
NORTHEAST TENNESSEE

CITY           SKY/WX    TMP DP  RH WIND       PRES   REMARKS
TRI CITIES     PTSUNNY   70  64  81 CALM      30.09R
ELIZABETHTON   MOSUNNY   66  63  88 CALM      30.10S
$$

TNZ012-013-036-069-073-074-301300-
CENTRAL EAST TENNESSEE

CITY           SKY/WX    TMP DP  RH WIND       PRES   REMARKS
KNOXVILLE      PTSUNNY   76  62  62 S6        29.99F
OAK RIDGE      MOSUNNY   71  64  78 W3        30.01F
DOWNTOWN KNOXV SUNNY     64  63  94 CALM      30.00F FOG
GATLINBURG     SUNNY     64  59  82 E3        30.00F
MORRISTOWN     SUNNY     68  64  88 CALM      30.02F
JACKSBORO      SUNNY     70  64  83 CALM      30.03S
$$

TNZ083-085-099-301300-
SOUTHEAST TENNESSEE

CITY           SKY/WX    TMP DP  RH WIND       PRES   REMARKS
CHATTANOOGA    PTSUNNY   71  67  87 S3        30.02R
$$

SKY/WX REPORTED AS FAIR MEANS FEW OR NO CLOUDS BELOW
12 THOUSAND FEET.




USA.gov is the U.S. government's official web portal to all federal, state and local government web resources and services.